Regional Weather Roundup
Issued by NWS Upton, NY

Current Version | Previous Version | Text Only | Print | Product List | Glossary On
Versions: 1 2 3 4 5 6 7 8 9 10 11 12 13 14 15 16 17 18 19 20 21 22 23 24 25 26 27 28 29 30 31 32 33 34 35 36 37 38 39 40 41 42 43 44 45 46 47 48 49 50
000 ASUS41 KOKX 232209 RWROKX REGIONAL WEATHER ROUNDUP NATIONAL WEATHER SERVICE NEW YORK NY 500 PM EST THU NOV 23 2017 NOTE: "FAIR" INDICATES FEW OR NO CLOUDS BELOW 12,000 FEET WITH NO SIGNIFICANT WEATHER AND/OR OBSTRUCTIONS TO VISIBILITY. NYZ071-072-176-178-NJZ106-104-232300- NEW YORK CITY METRO AREA CITY SKY/WX TMP DP RH WIND PRES REMARKS Central Park CLEAR 40 19 43 CALM 30.03S Bronx Bot Gard N/A 41 19 42 CALM 30.02S Bronx Lehman C NOT AVBL LaGuardia APRT PTCLDY 43 18 36 W5 30.01S Queens College NOT AVBL Kennedy INTL PTCLDY 38 24 57 SW10 30.03S WCI 31 Breezy Point NOT AVBL Brooklyn Coll NOT AVBL Staten Island NOT AVBL Newark/Liberty PTCLDY 42 18 37 W6 30.02S Teterboro CLEAR 41 18 39 W3 30.01S $$ NYZ177-179-078>081-232300- LONG ISLAND NEW YORK CITY SKY/WX TMP DP RH WIND PRES REMARKS Jones Beach NOT AVBL Wantagh NOT AVBL Matinecock PT NOT AVBL Farmingdale CLEAR 40 18 41 CALM 30.02S MacArthur/ISP PTCLDY 38 21 50 W3 30.01S Shirley CLEAR 34 24 67 CALM 30.02S Mt Sinai Harb NOT AVBL Westhampton CLEAR 31 21 66 CALM 30.03R East Hampton FAIR 31 23 71 CALM 30.01R Southold NOT AVBL Montauk N/A 40 26 57 VRB3 30.02R $$ NYZ052-065-067-232300- HUDSON VALLEY CITY SKY/WX TMP DP RH WIND PRES REMARKS White Plains CLEAR 35 21 56 CALM 29.99S Larchmont Harb NOT AVBL Croton On Huds NOT AVBL Somers NOT AVBL Brewster NOT AVBL Newburgh PTCLDY 39 19 45 W6 30.00R WCI 35 Montgomery PTCLDY 37 20 50 SW3 29.98S Suffern NOT AVBL Poughkeepsie PTCLDY 35 20 54 CALM 30.00R Albany MOCLDY 34 20 56 CALM 30.01S $$ NJZ001-105-106-008-010-013-015-019>022-104-232300- NEW JERSEY CITY SKY/WX TMP DP RH WIND PRES REMARKS Newark/Liberty PTCLDY 42 18 37 W6 30.02S Teterboro CLEAR 41 18 39 W3 30.01S Caldwell CLEAR 39 19 44 CALM 30.02S Somerville CLEAR 36 20 52 CALM 30.01S Linden FAIR 41 18 39 CALM 30.03R Perth Amboy NOT AVBL Sussex PTCLDY 37 21 52 CALM 30.00S Andover N/A 33 21 61 CALM 30.01R Trenton CLEAR 39 19 44 W3 30.03S Millville CLEAR 33 23 66 SW3 30.05F Atlantic City CLEAR 39 21 48 W5 30.05S Wrightstown CLEAR 35 22 58 W3 30.01F Toms River CLEAR 33 24 69 CALM 30.05S Belmar CLEAR 37 20 50 SW3 30.04S $$ PAZ047>061-062-071-232300- EASTERN PENNSYLVANIA CITY SKY/WX TMP DP RH WIND PRES REMARKS Philadelphia PTCLDY 41 18 39 W7 30.05S Allentown CLOUDY 36 19 50 W6 30.02S WCI 31 Scranton MOCLDY 34 22 61 CALM 30.00F $$ CTZ002-004>006-009-010-012-RIZ004-006-007-MAZ004-011-015-232300- SOUTHERN NEW ENGLAND IN CT CITY SKY/WX TMP DP RH WIND PRES REMARKS Bradley INTL CLOUDY 37 18 46 W5 29.99R WCI 33 Hartford CLEAR 39 18 42 W3 30.00S Danbury CLEAR 33 20 58 CALM 30.00S Wtrbury/Oxford CLEAR 36 16 44 W3 29.98S Norwalk Harbor NOT AVBL Bridgeport CLEAR 40 19 43 W3 30.01S Meriden CLEAR 35 22 58 W3 30.00S New Haven CLEAR 41 18 39 W5 30.00S Chester FAIR 36 16 44 CALM 29.99R Groton CLEAR 39 21 48 W5 29.99R Wilimantic CLEAR 37 22 54 CALM 29.99S IN RI CITY SKY/WX TMP DP RH WIND PRES REMARKS Providence PTCLDY 39 20 46 W3 29.99R Block Island CLEAR 38 25 59 W7 30.00S WCI 33 Westerly CLEAR 38 26 62 CALM 30.00R IN MA CITY SKY/WX TMP DP RH WIND PRES REMARKS Boston PTCLDY 41 15 35 W7 29.98R Worcester CLEAR 34 14 43 W5 29.94S WCI 30 Westfield PTCLDY 36 18 48 NW6 29.98S WCI 31 Provincetown CLEAR 30 24 78 CALM 29.98S Nantucket PTCLDY 36 29 75 W6 29.99S WCI 31 $$ ANZ330-335-338-340-345-350-353-355-232300- COASTAL MARINE OBSERVATIONS STATION/POSITION TIME SKY/WX TEMP WIND PRES VSBY WAVE AIR SEA DIR/SP/G HT/PER (UTC) (F) (DEG/KT/KT) (MB) (MI) (FT/S) NY HARB ENTRANCE 2150 42 55 280/ 8/ 12 1016.3 3/10 20 S FIRE ISLAND 2150 41 56 290/ 10/ 14 1016.9 3/11 GREAT SOUTH BAY 2130 40 46 290/ 6/ 8 N/A HUDSON CANYON 2150 43 58 280/ 8/ 12 1016.3 5/10 KINGS POINT 2130 42 49 310/ 3/ 5 1017.0 EXECUTION ROCKS 2130 46 250/ 6/ 8 N/A WESTERN LI SOUND 2049 44 300/ 4/ 8 N/A 0 CENTRAL LI SOUND NOT AVBL ROBBINS REEF 2130 42 280/ 6/ 7 1016.9 $$ >>>>>>>>>>>>>>>>>>>>>>>>>>>> KEY <<<<<<<<<<<<<<<<<<<<<<<<<<< > < > SKY/WX - Sky Condition/Present Weather < > TMP - Temperature in Fahrenheit < > DP - Dew Point in Fahrenheit < > RH - Relative Humidity in Percent < > WIND - Direction (from) and Speed in MPH < > PRES - Mean Sea Level Pressure (inches of Hg) < > WCI - Wind Chill Index < > VSB - VISIBILITY IN MILES < > HX - HEAT INDEX < > TC - TEMPERATURE IN CELSIUS < > VRB - VARIABLE WIND DIRECTION < > < >>>>>>>>>>>>>>>>>>>>>>>>>>>> KEY <<<<<<<<<<<<<<<<<<<<<<<<<<<

USA.gov is the U.S. government's official web portal to all federal, state and local government web resources and services.